Regional Weather Roundup
Issued by NWS

Home | Current Version | Previous Version | Graphics & Text | Print | Product List | Glossary On
Versions: 1 2 3 4 5 6 7 8 9 10 11 12 13 14 15 16 17 18 19 20 21 22 23 24 25 26 27 28 29 30 31 32 33 34 35 36 37 38 39 40 41 42 43 44 45 46 47 48 49 50
000
ASUS45 KPSR 060810
RWRAZ

ARIZONA HOURLY REGIONAL WEATHER ROUNDUP
NATIONAL WEATHER SERVICE PHOENIX AZ
100 AM MST MON JUL 06 2015

NOTE: FAIR INDICATES FEW OR NO CLOUDS BELOW 12,000 FEET WITH NO
SIGNIFICANT WEATHER AND/OR OBSTRUCTIONS TO VISIBILITY.

AZZ001>003-036-060900-
NORTHWEST ARIZONA

CITY           SKY/WX    TMP DP  RH WIND       PRES   REMARKS
BULLHEAD CITY  MOCLDY    86  63  45 E6        29.88R
KINGMAN        CLOUDY    73  60  63 E24       30.06F
$$

AZZ004>008-015-016-018-060900-
NORTH CENTRAL ARIZONA

CITY           SKY/WX    TMP DP  RH WIND       PRES   REMARKS
GRAND CANYON   CLOUDY    59  53  80 NW3       30.29R
WILLIAMS       CLOUDY    57  54  88 S7        30.37R
PRESCOTT       CLOUDY    64  58  80 S3        30.22F
FLAGSTAFF      LGT RAIN  57  52  83 N6        30.32S
PAYSON         MOCLDY    66  57  72 SW3       30.22R
PAGE           CLOUDY    79  48  33 CALM      30.06S
$$

AZZ009>014-017-060900-
NORTHEAST ARIZONA

CITY           SKY/WX    TMP DP  RH WIND       PRES   REMARKS
WINSLOW        CLOUDY    66  58  75 SW5       30.15F
SAINT JOHNS    CLOUDY    67  56  67 E6        30.21F
WINDOW ROCK    CLOUDY    61  57  87 CALM      30.28S
SHOW LOW       CLOUDY    57  55  94 SW3       30.28R
$$

AZZ023-060900-
GREATER PHOENIX AREA

CITY           SKY/WX    TMP DP  RH WIND       PRES   REMARKS
PHOENIX        MOCLDY    84  65  52 S7        29.93R
BUCKEYE        CLOUDY    82  66  57 SE7       29.93R
LUKE AFB       MOCLDY    86  64  48 CALM      29.93R
DEER VALLEY    CLEAR     83  65  54 SE5       29.95S
SCOTTSDALE     MOCLDY    83  64  52 CALM      29.98R
MESA-GATEWAY   PTCLDY    79  68  69 CALM      29.97S
$$

AZZ027-028-060900-
SOUTHWEST MARICOPA COUNTY AND PINAL COUNTY

CITY           SKY/WX    TMP DP  RH WIND       PRES   REMARKS
CASA GRANDE    CLEAR     75  70  83 CALM      29.95R
GILA BEND      FAIR      87  62  43 E3        29.89S
$$

AZZ503-504-507>509-060900-
SOUTHEAST ARIZONA

CITY           SKY/WX    TMP DP  RH WIND       PRES   REMARKS
TUCSON         PTCLDY    78  63  59 SE6       30.04F
DAVIS-MONTHAN  CLEAR     74  68  79 SE5       30.03S
NOGALES        PTCLDY    68  62  81 E3        30.13F
SIERRA VISTA   PTCLDY    69  59  69 SW1       30.17F
DOUGLAS        CLOUDY    69  64  84 CALM      30.13F
SAFFORD        MOCLDY    71  67  87 NE6       30.05F
$$

AZZ020-021-025-026-031-060900-
SOUTHWEST ARIZONA

CITY           SKY/WX    TMP DP  RH WIND       PRES   REMARKS
YUMA           CLEAR     86  63  45 SE6       29.84R
$$

CAZ031-033-041-043-047-048-061-060900-
SOUTHERN CALIFORNIA

CITY           SKY/WX    TMP DP  RH WIND       PRES   REMARKS
DOWNTOWN L.A.  CLOUDY    66  59  78 CALM      30.01S
L.A. AIRPORT   CLOUDY    64  59  83 W5        30.02S
SAN DIEGO      CLOUDY    67  58  72 NW6       30.03S
BURBANK        CLOUDY    64  58  80 S6        30.01S
ONTARIO        CLOUDY    65  59  81 SW7       30.01F
RIVERSIDE      CLOUDY    65  59  81 W5        30.02S
PALM SPRINGS   CLEAR     84  58  40 NW10      29.89R
EL CENTRO NAS  CLEAR     82  57  42 NE9       29.82R
IMPERIAL       CLEAR     84  64  50 MISG      29.80R
BLYTHE         CLEAR     89  50  26 S8        29.84R
NEEDLES        PTCLDY    89  57  33 CALM      29.87R
$$

NVZ020-UTZ003-060900-
SOUTHERN NEVADA-UTAH

CITY           SKY/WX    TMP DP  RH WIND       PRES   REMARKS
LAS VEGAS      CLOUDY    86  51  29 S10       29.90S
SALT LAKE CITY CLEAR     71  62  73 W7        30.04R
$$

NMZ009-TXZ055-060900-
NEW MEXICO-WEST TEXAS

CITY           SKY/WX    TMP DP  RH WIND       PRES   REMARKS
ALBUQUERQUE    CLOUDY    68  59  73 NW5       30.16S
EL PASO        MOCLDY    80  58  46 SW15      30.04S
$$


........................KEY........................
SKY/WX - SKY CONDITION/WEATHER
TMP    - TEMPERATURE IN FAHRENHEIT
DP     - DEW POINT IN FAHRENHEIT
RH     - RELATIVE HUMIDITY IN PERCENT
WIND   - DIRECTION AND SPEED IN MILES PER HOUR (MPH)
VRB    - VARIABLE WIND DIRECTION
PRES   - MEAN SEA LEVEL PRESSURE IN INCHES OF MERCURY
         F - FALLING PRESSURE   R - RISING PRESSURE
         S - STEADY PRESSURE
VSB    - VISIBILITY IN MILES
HX     - HEAT INDEX IN FAHRENHEIT
WCI    - WIND CHILL INDEX IN FAHRENHEIT
TC     - TEMPERATURE IN CELSIUS WHICH IS ALSO KNOWN AS
         TEMPERATURE IN CENTIGRADE
AFB    - AIR FORCE BASE
         LUKE AFB IS LUKE AIR FORCE BASE
         DAVIS-MONTHAN IS DAVIS-MONTHAN AIR FORCE BASE
NAS    - NAVAL AIR STATION
         EL CENTRO NAS IS EL CENTRO NAVAL AIR STATION
N/A    - NOT AVAILABLE



USA.gov is the U.S. government's official web portal to all federal, state and local government web resources and services.